Monroe, WI

9:25 AM CDT on August 31, 2016 (GMT -0500)
Monroe Municipal

Weather History for KEFT - January, 2013

Change the Weather History Date:

Sunday, January 20, 2013

  Actual Average Record
Temperature  
Mean Temperature 12 °F -  
Max Temperature 17 °F 0 °F 34 °F (2014)
Min Temperature 8 °F - -14 °F (2008)
Degree Days  
Heating Degree Days 52    
Moisture  
Dew Point 0 °F    
Average Humidity 58    
Maximum Humidity 67    
Minimum Humidity 41    
Precipitation  
Precipitation 0.00 in - - ()
Sea Level Pressure  
Sea Level Pressure 30.19 in    
Wind  
Wind Speed 15 mph (WNW)    
Max Wind Speed 29 mph    
Max Gust Speed 37 mph    
Visibility 10 miles    
Events      
Averages and records for this station are not official NWS values.
T = Trace of Precipitation, MM = Missing Value Source: NWS Daily Summary

Daily Weather History Graph

Daily Weather History Graph

Search for Another Location

Airport or City:

Trip Planner

Search our weather history database for the weather conditions in past years. The results will help you decide how hot, cold, wet, or windy it might be!

Date:

Astronomy

Jan. 20, 2013 Rise Set
Actual Time 7:22 AM CST 4:56 PM CST
Civil Twilight 6:51 AM CST 5:27 PM CST
Nautical Twilight 6:17 AM CST 6:02 PM CST
Astronomical Twilight 5:43 AM CST 6:35 PM CST
Moon 11:58 AM CST (1/20) 1:54 AM CST (1/20)
Length of Visible Light 10h 35m
Length of Day
9h 34m
Waxing Gibbous, 66% of the Moon is Illuminated
Jan 20
Waxing Gibbous
Jan 26
Full
Feb 3
Last Quarter
Feb 10
New
Feb 17
First Quarter

Hourly Weather History & Observations

Time (CST) Temp. Windchill Dew Point Humidity Pressure Visibility Wind Dir Wind Speed Gust Speed Precip Events Conditions
12:15 AM 17.6 °F 2.2 °F 3.2 °F 53% 29.99 in 10.0 mi WNW 17.3 mph 36.8 mph N/A   Clear
12:35 AM 15.8 °F -4.1 °F 3.2 °F 58% 30.01 in 10.0 mi WNW 28.8 mph 35.7 mph N/A   Scattered Clouds
12:55 AM 14.0 °F -3.9 °F 3.2 °F 62% 30.03 in 10.0 mi WNW 20.7 mph 33.4 mph N/A   Scattered Clouds
1:15 AM 14.0 °F -4.3 °F 1.4 °F 57% 30.04 in 10.0 mi WNW 21.9 mph 32.2 mph N/A   Clear
1:35 AM 12.2 °F -4.8 °F 1.4 °F 62% 30.05 in 10.0 mi WNW 17.3 mph 27.6 mph N/A   Clear
1:55 AM 12.2 °F -5.3 °F 1.4 °F 62% 30.07 in 10.0 mi WNW 18.4 mph 27.6 mph N/A   Clear
2:15 AM 12.2 °F -6.7 °F 1.4 °F 62% 30.09 in 10.0 mi WNW 21.9 mph 28.8 mph N/A   Clear
2:35 AM 12.2 °F -5.3 °F 1.4 °F 62% 30.10 in 10.0 mi WNW 18.4 mph 27.6 mph N/A   Clear
2:55 AM 12.2 °F -7.1 °F 1.4 °F 62% 30.12 in 10.0 mi WNW 23.0 mph 28.8 mph N/A   Clear
3:15 AM 12.2 °F -4.3 °F -0.4 °F 57% 30.13 in 10.0 mi WNW 16.1 mph 25.3 mph N/A   Clear
3:35 AM 10.4 °F -7.7 °F 1.4 °F 67% 30.14 in 10.0 mi WNW 18.4 mph 21.9 mph N/A   Clear
3:55 AM 10.4 °F -8.6 °F -0.4 °F 62% 30.14 in 10.0 mi WNW 20.7 mph 26.5 mph N/A   Clear
4:15 AM 10.4 °F -6.6 °F -0.4 °F 62% 30.15 in 10.0 mi WNW 16.1 mph 24.2 mph N/A   Clear
4:35 AM 10.4 °F -5.4 °F -0.4 °F 62% 30.16 in 10.0 mi WNW 13.8 mph 20.7 mph N/A   Clear
4:55 AM 10.4 °F -5.4 °F -0.4 °F 62% 30.16 in 10.0 mi WNW 13.8 mph 21.9 mph N/A   Clear
5:15 AM 10.4 °F -6.0 °F -0.4 °F 62% 30.18 in 10.0 mi WNW 15.0 mph 21.9 mph N/A   Clear
5:35 AM 8.6 °F -7.7 °F -0.4 °F 67% 30.18 in 10.0 mi NW 13.8 mph - N/A   Clear
6:15 AM 8.6 °F -8.9 °F -0.4 °F 67% 30.20 in 10.0 mi WNW 16.1 mph 21.9 mph N/A   Clear
6:35 AM 8.6 °F -7.0 °F -0.4 °F 67% 30.21 in 10.0 mi WNW 12.7 mph 18.4 mph N/A   Clear
6:55 AM 8.6 °F -7.0 °F -0.4 °F 67% 30.21 in 10.0 mi WNW 12.7 mph 20.7 mph N/A   Clear
7:15 AM 8.6 °F -6.3 °F -0.4 °F 67% 30.22 in 10.0 mi WNW 11.5 mph 19.6 mph N/A   Clear
7:35 AM 8.6 °F -6.3 °F -0.4 °F 67% 30.23 in 10.0 mi WNW 11.5 mph 16.1 mph N/A   Clear
7:55 AM 8.6 °F -6.3 °F -0.4 °F 67% 30.24 in 10.0 mi WNW 11.5 mph - N/A   Clear
8:15 AM 8.6 °F -7.0 °F -0.4 °F 67% 30.25 in 10.0 mi WNW 12.7 mph - N/A   Clear
8:35 AM 10.4 °F -4.1 °F -0.4 °F 62% 30.26 in 10.0 mi WNW 11.5 mph - N/A   Clear
8:55 AM 10.4 °F -4.1 °F -0.4 °F 62% 30.25 in 10.0 mi WNW 11.5 mph - N/A   Clear
9:15 AM 10.4 °F -2.4 °F -0.4 °F 62% 30.26 in 10.0 mi WNW 9.2 mph - N/A   Clear
9:35 AM 10.4 °F -1.5 °F -0.4 °F 62% 30.26 in 10.0 mi WNW 8.1 mph - N/A   Clear
9:55 AM 12.2 °F 1.7 °F -0.4 °F 57% 30.27 in 10.0 mi WNW 6.9 mph - N/A   Clear
10:15 AM 12.2 °F -0.2 °F -0.4 °F 57% 30.28 in 10.0 mi NW 9.2 mph - N/A   Clear
10:35 AM 12.2 °F -2.5 °F -0.4 °F 57% 30.27 in 10.0 mi WNW 12.7 mph 16.1 mph N/A   Scattered Clouds
10:55 AM 12.2 °F -1.8 °F -0.4 °F 57% 30.27 in 10.0 mi West 11.5 mph - N/A   Clear
11:15 AM 14.0 °F -0.8 °F -0.4 °F 53% 30.27 in 10.0 mi West 13.8 mph 19.6 mph N/A   Clear
11:35 AM 14.0 °F -0.2 °F 1.4 °F 57% 30.26 in 10.0 mi West 12.7 mph - N/A   Clear
11:55 AM 14.0 °F -0.8 °F -0.4 °F 53% 30.26 in 10.0 mi WNW 13.8 mph - N/A   Clear
12:15 PM 14.0 °F 2.0 °F 1.4 °F 57% 30.25 in 10.0 mi West 9.2 mph 16.1 mph N/A   Clear
12:35 PM 14.0 °F -0.2 °F -0.4 °F 53% 30.24 in 10.0 mi WNW 12.7 mph 18.4 mph N/A   Clear
12:55 PM 15.8 °F 6.1 °F -0.4 °F 49% 30.22 in 10.0 mi NW 6.9 mph - N/A   Scattered Clouds
1:15 PM 15.8 °F 2.7 °F -0.4 °F 49% 30.22 in 10.0 mi WNW 11.5 mph 16.1 mph N/A   Mostly Cloudy
1:35 PM 15.8 °F 3.4 °F -0.4 °F 49% 30.23 in 10.0 mi WNW 10.4 mph - N/A   Mostly Cloudy
1:55 PM 17.6 °F 3.7 °F -0.4 °F 45% 30.23 in 10.0 mi West 13.8 mph 17.3 mph N/A   Overcast
2:15 PM 15.8 °F 2.1 °F -2.2 °F 45% 30.23 in 10.0 mi WNW 12.7 mph 16.1 mph N/A   Overcast
3:15 PM 15.8 °F 2.7 °F -4.0 °F 41% 30.22 in 10.0 mi West 11.5 mph 18.4 mph N/A   Overcast
3:35 PM 15.8 °F 1.4 °F -2.2 °F 45% 30.22 in 10.0 mi West 13.8 mph - N/A   Overcast
3:55 PM 15.8 °F 1.4 °F -2.2 °F 45% 30.21 in 10.0 mi WNW 13.8 mph 18.4 mph N/A   Overcast
4:15 PM 15.8 °F 2.1 °F -2.2 °F 45% 30.21 in 10.0 mi West 12.7 mph 17.3 mph N/A   Scattered Clouds
4:35 PM 15.8 °F 4.2 °F -2.2 °F 45% 30.21 in 10.0 mi West 9.2 mph - N/A   Mostly Cloudy
4:55 PM 15.8 °F 2.7 °F -2.2 °F 45% 30.22 in 10.0 mi West 11.5 mph 16.1 mph N/A   Overcast
5:15 PM 15.8 °F 2.7 °F -2.2 °F 45% 30.22 in 10.0 mi West 11.5 mph 16.1 mph N/A   Overcast
5:35 PM 15.8 °F 3.4 °F -0.4 °F 49% 30.21 in 10.0 mi West 10.4 mph - N/A   Mostly Cloudy
5:55 PM 14.0 °F 2.9 °F 1.4 °F 57% 30.21 in 10.0 mi West 8.1 mph - N/A   Scattered Clouds
6:15 PM 14.0 °F 1.2 °F 1.4 °F 57% 30.22 in 10.0 mi West 10.4 mph - N/A   Scattered Clouds
6:55 PM 14.0 °F 1.2 °F 1.4 °F 57% 30.22 in 10.0 mi West 10.4 mph - N/A   Overcast
7:15 PM 14.0 °F 2.9 °F 3.2 °F 62% 30.21 in 10.0 mi West 8.1 mph - N/A   Overcast
7:35 PM 14.0 °F 0.5 °F 3.2 °F 62% 30.20 in 10.0 mi West 11.5 mph - N/A   Overcast
7:55 PM 14.0 °F 2.9 °F 3.2 °F 62% 30.20 in 10.0 mi West 8.1 mph - N/A   Overcast
8:15 PM 14.0 °F 0.5 °F 1.4 °F 57% 30.19 in 10.0 mi West 11.5 mph - N/A   Overcast
8:35 PM 14.0 °F 0.5 °F 1.4 °F 57% 30.19 in 10.0 mi West 11.5 mph - N/A   Mostly Cloudy
8:55 PM 12.2 °F -1.0 °F 1.4 °F 62% 30.19 in 10.0 mi West 10.4 mph - N/A   Scattered Clouds
9:15 PM 12.2 °F -1.0 °F 1.4 °F 62% 30.18 in 10.0 mi West 10.4 mph - N/A   Scattered Clouds
9:35 PM 12.2 °F -2.5 °F 1.4 °F 62% 30.18 in 10.0 mi West 12.7 mph - N/A   Scattered Clouds
9:55 PM 12.2 °F -2.5 °F 1.4 °F 62% 30.18 in 10.0 mi West 12.7 mph - N/A   Clear
10:15 PM 12.2 °F -3.1 °F 1.4 °F 62% 30.17 in 10.0 mi West 13.8 mph - N/A   Clear
10:35 PM 12.2 °F -4.3 °F 1.4 °F 62% 30.17 in 10.0 mi West 16.1 mph - N/A   Clear
10:55 PM 12.2 °F -2.5 °F 1.4 °F 62% 30.16 in 10.0 mi West 12.7 mph - N/A   Clear
11:15 PM 12.2 °F -3.7 °F 1.4 °F 62% 30.16 in 10.0 mi West 15.0 mph 23.0 mph N/A   Mostly Cloudy
11:35 PM 10.4 °F -6.0 °F 1.4 °F 67% 30.16 in 10.0 mi West 15.0 mph 20.7 mph N/A   Mostly Cloudy
11:55 PM 10.4 °F -4.1 °F 1.4 °F 67% 30.15 in 10.0 mi West 11.5 mph - N/A   Scattered Clouds